Flag for Canada Weather past 2 weeks in Calgary, Alberta, Canada

Now
54 °F

Broken clouds.


Feels Like: 52 °F
Forecast: 37 / 47 °F
Wind: 7 mph from Southwest

Location: Calgary International

Current Time: Jan 27, 2015 at 12:04:54 PM

Latest Report: Jan 27, 2015 at 11:00 AM


Visibility: 40 mi

Pressure: 29.80 "Hg

Humidity: 33%

Dew point: 25 °F

Location of CalgaryLocation

Historic Weather in Calgary — Graph

°F

Calgary temperature yesterday

Maximum temperature yesterday: 54 °F (at 2:00 PM)
Minimum temperature yesterday: 36 °F (at 7:00 AM)
Average temperature yesterday: 44 °F

Past Weeks' High & Low Weather Summary

 TemperatureHumidityPressure
High63 °F (Jan 25, 3:00 PM)93% (Jan 18, 9:00 AM)30.42 "Hg (Jan 18, 9:00 AM)
Low10 °F (Jan 12, 8:00 PM)25% (Jan 15, 3:00 PM)29.47 "Hg (Jan 16, 8:00 AM)
Average39 °F47%29.99 "Hg
* Reported Jan 12 11:00 AM — Jan 27 11:00 AM, Calgary, Weather by CustomWeather, © 2014

Note: Actual official high and low records may vary slightly from our data, if they occured in-between our weather recording intervals... More about our weather records

Advertising

Calgary weather history for previous 24 hours

 ConditionsComfort  
Time TempWeatherWind HumidityBarometerVisibility
11:00 AM
Jan 27
54 °FBroken clouds.7 mph33%29.80 "Hg40 mi
10:00 AM46 °FPartly sunny.2 mph46%29.81 "Hg40 mi
9:00 AM46 °FPartly sunny.3 mph43%29.83 "Hg40 mi
8:00 AM50 °FPassing clouds.8 mph37%29.82 "Hg30 mi
7:00 AM37 °FPassing clouds.No wind65%29.85 "Hg15 mi
6:00 AM45 °FPassing clouds.3 mph46%29.84 "Hg15 mi
5:00 AM41 °FPassing clouds.8 mph57%29.83 "Hg15 mi
4:00 AM45 °FPassing clouds.9 mph46%29.81 "Hg15 mi
3:00 AM39 °FPassing clouds.6 mph61%29.81 "Hg15 mi
2:00 AM37 °FPassing clouds.2 mph65%29.81 "Hg15 mi
1:00 AM45 °FPassing clouds.3 mph46%29.80 "Hg15 mi
12:00 AM52 °FPassing clouds.No wind35%29.78 "Hg15 mi
11:00 PM
Jan 26
50 °FClear.6 mph37%29.79 "Hg15 mi
10:00 PM48 °FPassing clouds.5 mph43%29.80 "Hg15 mi
9:00 PM39 °FClear.3 mph70%29.82 "Hg15 mi
8:00 PM39 °FPassing clouds.6 mph70%29.82 "Hg15 mi
7:00 PM41 °FPassing clouds.No wind70%29.83 "Hg15 mi
6:00 PM37 °FPassing clouds.3 mph81%29.84 "Hg30 mi
5:00 PM41 °FPartly sunny.8 mph70%29.84 "Hg40 mi
4:00 PM48 °FPartly sunny.3 mph62%29.83 "Hg40 mi
3:00 PM50 °FPartly sunny.8 mph54%29.84 "Hg40 mi
2:00 PM54 °FPartly sunny.5 mph38%29.83 "Hg40 mi
1:00 PM52 °FPartly sunny.6 mph47%29.85 "Hg40 mi
12:00 PM52 °FPartly sunny.3 mph44%29.89 "Hg40 mi
Weather by CustomWeather, © 2014

See weather overviewHow to use our weather pages